{"data":{"norad_id":65848,"intl_designator":"2025-221AB","name":"STARLINK-35308","alt_names":[],"object_type":"PAYLOAD","status":"ACTIVE","operator":null,"country":"US","launch_date":"2025-09-29","launch_site_code":"AFWTR","launch_vehicle":null,"mission":null,"orbit_class":"UNKNOWN","rcs_meters":null,"size_class":null,"mass_kg":null,"dimensions":null,"purposes":["comms"],"wikipedia_slug":null,"has_3d_model":false,"image_url":null,"decayed_at":null,"tle_current":{"epoch":"2026-09-20T07:09:45.496800Z","epoch_age_seconds":123526,"freshness":"FRESH","line1":"1 65848U 25221AB  26263.29844325  .00005260  00000+0  16670-3 0  9994","line2":"2 65848  53.1585 260.5174 0001385  71.0515 289.0638 15.34398732 55934","mean_motion":15.34398732,"eccentricity":0.0001385,"inclination_deg":53.1585,"raan_deg":260.5174,"arg_perigee_deg":71.0515,"mean_anomaly_deg":289.0638,"bstar":0.0001667,"rev_number":5593,"period_min":93.847835635464,"perigee_km":461.75955207768,"apogee_km":463.65446586816,"semimajor_km":6840.8440089729,"source":"CELESTRAK","updated_at":"2026-09-21T09:00:35.724236Z"}}}